| time (UTC) | temp F | wind direction | speed MPH | gust MPH | rain 1hr in | rain 24hr in | rain mn in | humidity % | barometer mb |
| 20260507064056 | 52 | 334 | 4.0 | 10.0 | 0.00 | 0.00 | 0.00 | 82 | 1021.8 |
| 20260507063558 | 52 | 317 | 4.0 | 10.0 | 0.00 | 0.00 | 0.00 | 83 | 1021.8 |
| 20260507063059 | 52 | 321 | 3.0 | 7.0 | 0.00 | 0.00 | 0.00 | 83 | 1021.7 |
| 20260507062556 | 52 | 326 | 2.0 | 7.0 | 0.00 | 0.00 | 0.00 | 84 | 1021.7 |
| 20260507062057 | 52 | 331 | 3.0 | 7.0 | 0.00 | 0.00 | 0.00 | 83 | 1021.7 |
| 20260507061558 | 52 | 317 | 3.0 | 6.0 | 0.00 | 0.00 | 0.00 | 83 | 1021.6 |
| 20260507061057 | 52 | 313 | 2.0 | 5.0 | 0.00 | 0.00 | 0.00 | 83 | 1021.6 |
| 20260507060558 | 52 | 315 | 2.0 | 5.0 | 0.00 | 0.00 | 0.00 | 84 | 1021.6 |
| 20260507060106 | 52 | 304 | 1.0 | 5.0 | 0.00 | 0.00 | 0.00 | 84 | 1021.6 |
| 20260507055556 | 53 | 324 | 3.0 | 5.0 | 0.00 | 0.00 | 0.00 | 84 | 1021.7 |
| 20260507055055 | 53 | 314 | 3.0 | 5.0 | 0.00 | 0.00 | 0.00 | 83 | 1021.7 |
| 20260507054600 | 53 | 0 | 0.0 | 3.0 | 0.00 | 0.00 | 0.00 | 84 | 1021.7 |
| 20260507054058 | 53 | 314 | 1.0 | 4.0 | 0.00 | 0.00 | 0.00 | 84 | 1021.7 |
| 20260507053559 | 53 | 0 | 1.0 | 5.0 | 0.00 | 0.00 | 0.00 | 84 | 1021.7 |
| 20260507053057 | 53 | 327 | 3.0 | 5.0 | 0.00 | 0.00 | 0.00 | 83 | 1021.7 |
| 20260507052558 | 53 | 318 | 1.0 | 8.0 | 0.00 | 0.00 | 0.00 | 84 | 1021.7 |
| 20260507052059 | 53 | 0 | 0.0 | 8.0 | 0.00 | 0.00 | 0.00 | 84 | 1021.8 |
| 20260507051557 | 53 | 305 | 0.0 | 6.0 | 0.00 | 0.00 | 0.00 | 84 | 1021.8 |
| 20260507051057 | 53 | 266 | 1.0 | 3.0 | 0.00 | 0.00 | 0.00 | 84 | 1021.9 |
| 20260507050558 | 53 | 0 | 0.0 | 2.0 | 0.00 | 0.00 | 0.00 | 84 | 1021.8 |
| 20260507050100 | 53 | 0 | 0.0 | 2.0 | 0.00 | 0.00 | 0.00 | 84 | 1021.9 |
| 20260507045558 | 53 | 0 | 0.0 | 3.0 | 0.00 | 0.00 | 0.00 | 84 | 1021.8 |
| 20260507045058 | 53 | 0 | 0.0 | 5.0 | 0.00 | 0.00 | 0.00 | 84 | 1021.8 |
| 20260507044601 | 53 | 320 | 1.0 | 6.0 | 0.00 | 0.00 | 0.00 | 84 | 1021.9 |
| 20260507044059 | 53 | 314 | 1.0 | 6.0 | 0.00 | 0.00 | 0.00 | 84 | 1021.9 |
| 20260507043558 | 53 | 321 | 1.0 | 4.0 | 0.00 | 0.00 | 0.00 | 84 | 1021.9 |
| 20260507043101 | 53 | 325 | 1.0 | 3.0 | 0.00 | 0.00 | 0.00 | 84 | 1021.8 |
| 20260507042556 | 53 | 0 | 1.0 | 3.0 | 0.00 | 0.00 | 0.00 | 84 | 1021.8 |
| 20260507042058 | 53 | 0 | 0.0 | 6.0 | 0.00 | 0.00 | 0.00 | 84 | 1021.7 |
| 20260507041558 | 53 | 327 | 2.0 | 6.0 | 0.00 | 0.00 | 0.00 | 84 | 1021.8 |
| 20260507041058 | 54 | 0 | 2.0 | 6.0 | 0.00 | 0.00 | 0.00 | 84 | 1021.9 |
| 20260507040559 | 54 | 319 | 2.0 | 8.0 | 0.00 | 0.00 | 0.00 | 83 | 1021.8 |
| 20260507040103 | 54 | 314 | 3.0 | 8.0 | 0.00 | 0.00 | 0.00 | 83 | 1021.8 |
| 20260507035558 | 54 | 307 | 2.0 | 7.0 | 0.00 | 0.00 | 0.00 | 83 | 1021.7 |
| 20260507035058 | 54 | 290 | 2.0 | 9.0 | 0.00 | 0.00 | 0.00 | 83 | 1021.6 |
| 20260507034600 | 54 | 295 | 2.0 | 9.0 | 0.00 | 0.00 | 0.00 | 82 | 1021.6 |
| 20260507034059 | 54 | 298 | 3.0 | 9.0 | 0.00 | 0.00 | 0.00 | 82 | 1021.5 |
| 20260507033558 | 54 | 315 | 3.0 | 10.0 | 0.00 | 0.00 | 0.00 | 82 | 1021.4 |
| 20260507033059 | 55 | 322 | 3.0 | 10.0 | 0.00 | 0.00 | 0.00 | 81 | 1021.3 |
| 20260507032559 | 55 | 328 | 4.0 | 10.0 | 0.00 | 0.00 | 0.00 | 81 | 1021.2 |
| 20260507032057 | 55 | 300 | 1.0 | 5.0 | 0.00 | 0.00 | 0.00 | 82 | 1021.1 |
| 20260507031555 | 55 | 333 | 1.0 | 8.0 | 0.00 | 0.00 | 0.00 | 82 | 1021.1 |
| 20260507031059 | 55 | 322 | 2.0 | 8.0 | 0.00 | 0.00 | 0.00 | 81 | 1021.0 |
| 20260507030558 | 55 | 319 | 3.0 | 8.0 | 0.00 | 0.00 | 0.00 | 81 | 1021.0 |
| 20260507030059 | 55 | 324 | 3.0 | 9.0 | 0.00 | 0.00 | 0.00 | 81 | 1021.0 |
| 20260507025558 | 56 | 307 | 3.0 | 11.0 | 0.00 | 0.00 | 0.00 | 80 | 1021.0 |
| 20260507025058 | 56 | 331 | 4.0 | 11.0 | 0.00 | 0.00 | 0.00 | 80 | 1020.9 |
| 20260507024609 | 56 | 319 | 5.0 | 10.0 | 0.00 | 0.00 | 0.00 | 79 | 1020.9 |
| 20260507024059 | 56 | 314 | 4.0 | 10.0 | 0.00 | 0.00 | 0.00 | 80 | 1020.9 |
| 20260507023558 | 56 | 321 | 4.0 | 13.0 | 0.00 | 0.00 | 0.00 | 80 | 1020.8 |
| 20260507023057 | 56 | 316 | 5.0 | 13.0 | 0.00 | 0.00 | 0.00 | 79 | 1020.8 |
| 20260507022558 | 57 | 318 | 7.0 | 13.0 | 0.00 | 0.00 | 0.00 | 79 | 1020.7 |
| 20260507022058 | 57 | 288 | 5.0 | 13.0 | 0.00 | 0.00 | 0.00 | 79 | 1020.7 |
| 20260507021600 | 57 | 333 | 5.0 | 13.0 | 0.00 | 0.00 | 0.00 | 79 | 1020.7 |
| 20260507021058 | 57 | 333 | 5.0 | 10.0 | 0.00 | 0.00 | 0.00 | 79 | 1020.7 |
| 20260507020558 | 58 | 338 | 5.0 | 12.0 | 0.00 | 0.00 | 0.00 | 79 | 1020.7 |
| 20260507020058 | 58 | 321 | 6.0 | 12.0 | 0.00 | 0.00 | 0.00 | 79 | 1020.6 |
| 20260507015557 | 58 | 320 | 7.0 | 12.0 | 0.00 | 0.00 | 0.00 | 78 | 1020.6 |
| 20260507015057 | 58 | 339 | 6.0 | 11.0 | 0.00 | 0.00 | 0.00 | 78 | 1020.6 |
| 20260507014600 | 58 | 331 | 5.0 | 10.0 | 0.00 | 0.00 | 0.00 | 78 | 1020.6 |
| 20260507014058 | 59 | 332 | 5.0 | 10.0 | 0.00 | 0.00 | 0.00 | 78 | 1020.4 |
| 20260507013600 | 59 | 306 | 5.0 | 10.0 | 0.00 | 0.00 | 0.00 | 77 | 1020.5 |
| 20260507013057 | 59 | 329 | 4.0 | 10.0 | 0.00 | 0.00 | 0.00 | 76 | 1020.4 |
| 20260507012558 | 59 | 325 | 5.0 | 10.0 | 0.00 | 0.00 | 0.00 | 76 | 1020.4 |
| 20260507012058 | 59 | 348 | 6.0 | 10.0 | 0.00 | 0.00 | 0.00 | 76 | 1020.4 |
| 20260507011558 | 60 | 329 | 5.0 | 9.0 | 0.00 | 0.00 | 0.00 | 75 | 1020.5 |
| 20260507011058 | 60 | 302 | 2.0 | 9.0 | 0.00 | 0.00 | 0.00 | 75 | 1020.6 |
| 20260507010558 | 60 | 307 | 4.0 | 9.0 | 0.00 | 0.00 | 0.00 | 74 | 1020.6 |
| 20260507010113 | 60 | 329 | 3.0 | 9.0 | 0.00 | 0.00 | 0.00 | 74 | 1020.7 |
| 20260507005558 | 60 | 271 | 3.0 | 9.0 | 0.00 | 0.00 | 0.00 | 74 | 1020.8 |
| 20260507005057 | 60 | 309 | 4.0 | 11.0 | 0.00 | 0.00 | 0.00 | 73 | 1020.8 |
| 20260507004600 | 60 | 304 | 5.0 | 11.0 | 0.00 | 0.00 | 0.00 | 74 | 1020.8 |
| 20260507004058 | 60 | 315 | 4.0 | 11.0 | 0.00 | 0.00 | 0.00 | 73 | 1020.8 |
| 20260507003559 | 61 | 325 | 5.0 | 12.0 | 0.00 | 0.00 | 0.00 | 72 | 1020.7 |
| 20260507003055 | 61 | 265 | 5.0 | 12.0 | 0.00 | 0.00 | 0.00 | 71 | 1020.7 |
| 20260507002558 | 62 | 303 | 6.0 | 12.0 | 0.00 | 0.00 | 0.00 | 70 | 1020.8 |
| 20260507002058 | 62 | 341 | 4.0 | 10.0 | 0.00 | 0.00 | 0.00 | 70 | 1020.8 |
| 20260507001601 | 62 | 317 | 4.0 | 10.0 | 0.00 | 0.00 | 0.00 | 70 | 1020.7 |
| 20260507001058 | 62 | 306 | 5.0 | 10.0 | 0.00 | 0.00 | 0.00 | 70 | 1020.8 |
| 20260507000602 | 61 | 322 | 2.0 | 12.0 | 0.00 | 0.00 | 0.00 | 71 | 1020.6 |
| 20260507000104 | 61 | 360 | 5.0 | 13.0 | 0.00 | 0.00 | 0.00 | 70 | 1020.6 |
| 20260506235559 | 61 | 317 | 7.0 | 13.0 | 0.00 | 0.00 | 0.00 | 70 | 1020.7 |
| 20260506235100 | 61 | 306 | 5.0 | 10.0 | 0.00 | 0.00 | 0.00 | 70 | 1020.6 |
| 20260506234621 | 61 | 288 | 5.0 | 10.0 | 0.00 | 0.00 | 0.00 | 71 | 1020.6 |
| 20260506234100 | 61 | 332 | 6.0 | 13.0 | 0.00 | 0.00 | 0.00 | 70 | 1020.7 |
| 20260506233559 | 61 | 308 | 5.0 | 13.0 | 0.00 | 0.00 | 0.00 | 70 | 1020.7 |
| 20260506233103 | 62 | 317 | 7.0 | 13.0 | 0.00 | 0.00 | 0.00 | 68 | 1020.7 |
| 20260506232557 | 62 | 323 | 6.0 | 12.0 | 0.00 | 0.00 | 0.00 | 69 | 1020.7 |
| 20260506232058 | 62 | 5 | 7.0 | 12.0 | 0.00 | 0.00 | 0.00 | 71 | 1020.7 |
| 20260506231558 | 62 | 5 | 7.0 | 14.0 | 0.00 | 0.00 | 0.00 | 70 | 1020.7 |
| 20260506231059 | 62 | 321 | 7.0 | 14.0 | 0.00 | 0.00 | 0.00 | 71 | 1020.7 |
| 20260506230558 | 62 | 326 | 8.0 | 14.0 | 0.00 | 0.00 | 0.00 | 69 | 1020.8 |
| 20260506230056 | 62 | 265 | 5.0 | 13.0 | 0.00 | 0.00 | 0.00 | 71 | 1020.7 |
| 20260506225559 | 62 | 312 | 5.0 | 13.0 | 0.00 | 0.00 | 0.00 | 69 | 1020.7 |
| 20260506225059 | 62 | 321 | 6.0 | 13.0 | 0.00 | 0.00 | 0.00 | 68 | 1020.8 |
| 20260506224557 | 62 | 264 | 1.0 | 12.0 | 0.00 | 0.00 | 0.00 | 72 | 1020.8 |
| 20260506224059 | 62 | 317 | 7.0 | 12.0 | 0.00 | 0.00 | 0.00 | 70 | 1021.0 |
| 20260506223558 | 61 | 337 | 6.0 | 11.0 | 0.00 | 0.00 | 0.00 | 72 | 1021.0 |
| 20260506223104 | 61 | 336 | 5.0 | 11.0 | 0.00 | 0.00 | 0.00 | 72 | 1021.0 |
| 20260506222600 | 61 | 343 | 4.0 | 11.0 | 0.00 | 0.00 | 0.00 | 72 | 1020.9 |
| 20260506222058 | 61 | 281 | 3.0 | 14.0 | 0.00 | 0.00 | 0.00 | 73 | 1021.0 |
| 20260506221557 | 61 | 344 | 8.0 | 14.0 | 0.00 | 0.00 | 0.00 | 72 | 1021.1 |
| 20260506221058 | 61 | 329 | 6.0 | 14.0 | 0.00 | 0.00 | 0.00 | 72 | 1021.2 |
| 20260506220601 | 61 | 340 | 4.0 | 12.0 | 0.00 | 0.00 | 0.00 | 75 | 1021.2 |
| 20260506220057 | 60 | 340 | 7.0 | 12.0 | 0.00 | 0.00 | 0.00 | 73 | 1021.2 |
| 20260506215601 | 61 | 321 | 5.0 | 11.0 | 0.00 | 0.00 | 0.00 | 74 | 1021.2 |
| 20260506215101 | 60 | 322 | 4.0 | 11.0 | 0.00 | 0.00 | 0.00 | 75 | 1021.1 |
| 20260506214606 | 60 | 306 | 5.0 | 11.0 | 0.00 | 0.00 | 0.00 | 74 | 1021.1 |
| 20260506214059 | 60 | 0 | 4.0 | 11.0 | 0.00 | 0.00 | 0.00 | 76 | 1021.1 |
| 20260506213558 | 60 | 346 | 5.0 | 10.0 | 0.00 | 0.00 | 0.00 | 76 | 1021.1 |
| 20260506213059 | 59 | 322 | 4.0 | 9.0 | 0.00 | 0.00 | 0.00 | 77 | 1021.2 |
| 20260506212558 | 59 | 328 | 3.0 | 7.0 | 0.00 | 0.00 | 0.00 | 77 | 1021.2 |
| 20260506212058 | 59 | 5 | 3.0 | 7.0 | 0.00 | 0.00 | 0.00 | 79 | 1021.2 |
| 20260506211600 | 59 | 330 | 1.0 | 6.0 | 0.00 | 0.00 | 0.00 | 80 | 1021.2 |
| 20260506211058 | 59 | 26 | 2.0 | 6.0 | 0.00 | 0.00 | 0.00 | 79 | 1021.1 |
| 20260506210558 | 58 | 21 | 2.0 | 6.0 | 0.00 | 0.00 | 0.00 | 79 | 1021.2 |
| 20260506210056 | 58 | 5 | 2.0 | 9.0 | 0.00 | 0.00 | 0.00 | 80 | 1021.2 |
| 20260506205558 | 58 | 351 | 3.0 | 9.0 | 0.00 | 0.00 | 0.00 | 81 | 1021.3 |
| 20260506205058 | 57 | 0 | 2.0 | 9.0 | 0.00 | 0.00 | 0.00 | 81 | 1021.2 |
| 20260506204608 | 57 | 315 | 3.0 | 7.0 | 0.00 | 0.00 | 0.00 | 81 | 1021.3 |
| 20260506204057 | 57 | 292 | 1.0 | 8.0 | 0.00 | 0.00 | 0.00 | 82 | 1021.3 |
| 20260506203557 | 57 | 319 | 2.0 | 8.0 | 0.00 | 0.00 | 0.00 | 83 | 1021.3 |
| 20260506203055 | 57 | 304 | 1.0 | 6.0 | 0.00 | 0.00 | 0.00 | 83 | 1021.2 |
| 20260506202559 | 57 | 333 | 2.0 | 7.0 | 0.00 | 0.00 | 0.00 | 84 | 1021.2 |
| 20260506202058 | 57 | 298 | 3.0 | 7.0 | 0.00 | 0.00 | 0.00 | 83 | 1021.2 |
| 20260506201600 | 57 | 323 | 2.0 | 4.0 | 0.00 | 0.00 | 0.00 | 84 | 1021.2 |
| 20260506201059 | 56 | 360 | 1.0 | 6.0 | 0.00 | 0.00 | 0.00 | 85 | 1021.1 |
| 20260506200557 | 56 | 351 | 2.0 | 6.0 | 0.00 | 0.00 | 0.00 | 86 | 1021.3 |
| 20260506200059 | 56 | 0 | 2.0 | 6.0 | 0.00 | 0.00 | 0.00 | 86 | 1021.3 |
| 20260506195603 | 56 | 313 | 2.0 | 5.0 | 0.00 | 0.00 | 0.00 | 87 | 1021.4 |
| 20260506195058 | 55 | 343 | 1.0 | 8.0 | 0.00 | 0.00 | 0.00 | 88 | 1021.4 |
| 20260506194600 | 55 | 350 | 2.0 | 8.0 | 0.00 | 0.00 | 0.00 | 87 | 1021.4 |
| 20260506194058 | 55 | 325 | 3.0 | 8.0 | 0.00 | 0.00 | 0.00 | 88 | 1021.4 |
| 20260506193558 | 55 | 342 | 3.0 | 9.0 | 0.00 | 0.00 | 0.00 | 88 | 1021.4 |
| 20260506193100 | 55 | 351 | 4.0 | 9.0 | 0.00 | 0.00 | 0.00 | 88 | 1021.4 |
| 20260506192559 | 55 | 320 | 2.0 | 10.0 | 0.00 | 0.00 | 0.00 | 88 | 1021.3 |
| 20260506192059 | 55 | 349 | 5.0 | 10.0 | 0.00 | 0.00 | 0.00 | 88 | 1021.2 |
| 20260506191558 | 55 | 315 | 3.0 | 6.0 | 0.00 | 0.00 | 0.00 | 88 | 1021.3 |
| 20260506191058 | 55 | 337 | 2.0 | 6.0 | 0.00 | 0.00 | 0.00 | 88 | 1021.1 |
| 20260506190557 | 55 | 335 | 2.0 | 5.0 | 0.00 | 0.00 | 0.00 | 88 | 1021.0 |
| 20260506190100 | 55 | 334 | 2.0 | 5.0 | 0.00 | 0.00 | 0.00 | 88 | 1021.1 |
| 20260506185557 | 54 | 349 | 2.0 | 5.0 | 0.00 | 0.00 | 0.00 | 89 | 1021.2 |
| 20260506185058 | 54 | 317 | 2.0 | 9.0 | 0.00 | 0.00 | 0.00 | 88 | 1021.2 |
| 20260506184558 | 54 | 306 | 5.0 | 9.0 | 0.00 | 0.00 | 0.00 | 89 | 1021.2 |
| 20260506184058 | 55 | 321 | 2.0 | 6.0 | 0.00 | 0.00 | 0.00 | 89 | 1021.3 |
| 20260506183558 | 54 | 321 | 2.0 | 6.0 | 0.00 | 0.00 | 0.00 | 89 | 1021.2 |
| 20260506183107 | 54 | 312 | 3.0 | 6.0 | 0.00 | 0.00 | 0.00 | 89 | 1021.2 |
| 20260506182557 | 54 | 315 | 2.0 | 6.0 | 0.00 | 0.00 | 0.00 | 89 | 1021.2 |
| 20260506182059 | 54 | 0 | 3.0 | 7.0 | 0.00 | 0.00 | 0.00 | 90 | 1021.2 |
| 20260506181557 | 54 | 321 | 3.0 | 7.0 | 0.00 | 0.00 | 0.00 | 89 | 1021.3 |
| 20260506181057 | 54 | 323 | 2.0 | 6.0 | 0.00 | 0.00 | 0.00 | 90 | 1021.2 |
| 20260506180558 | 54 | 317 | 3.0 | 6.0 | 0.00 | 0.00 | 0.00 | 90 | 1021.3 |
| 20260506180058 | 54 | 296 | 3.0 | 7.0 | 0.00 | 0.00 | 0.00 | 90 | 1021.2 |
| 20260506175559 | 54 | 313 | 4.0 | 7.0 | 0.00 | 0.00 | 0.00 | 90 | 1021.2 |
| 20260506175057 | 54 | 288 | 2.0 | 5.0 | 0.00 | 0.00 | 0.00 | 90 | 1021.3 |
| 20260506174608 | 54 | 320 | 2.0 | 4.0 | 0.00 | 0.00 | 0.00 | 90 | 1021.2 |
| 20260506174101 | 54 | 311 | 1.0 | 4.0 | 0.00 | 0.00 | 0.00 | 90 | 1021.2 |
| 20260506173558 | 54 | 306 | 2.0 | 4.0 | 0.00 | 0.00 | 0.00 | 90 | 1021.0 |
| 20260506173127 | 54 | 301 | 0.0 | 4.0 | 0.00 | 0.00 | 0.00 | 91 | 1020.9 |
| 20260506172557 | 54 | 245 | 1.0 | 4.0 | 0.00 | 0.00 | 0.00 | 91 | 1020.7 |
| 20260506172058 | 54 | 0 | 1.0 | 4.0 | 0.00 | 0.00 | 0.00 | 91 | 1020.8 |
| 20260506171600 | 53 | 0 | 0.0 | 3.0 | 0.00 | 0.00 | 0.00 | 91 | 1020.9 |
| 20260506171058 | 53 | 275 | 1.0 | 3.0 | 0.00 | 0.00 | 0.00 | 92 | 1021.0 |
| 20260506170559 | 53 | 315 | 0.0 | 2.0 | 0.00 | 0.00 | 0.00 | 92 | 1020.9 |
| 20260506170057 | 53 | 0 | 0.0 | 0.0 | 0.00 | 0.00 | 0.00 | 92 | 1020.9 |
| 20260506165557 | 53 | 0 | 0.0 | 0.0 | 0.00 | 0.00 | 0.00 | 92 | 1020.7 |
| 20260506165058 | 53 | 0 | 0.0 | 2.0 | 0.00 | 0.00 | 0.00 | 92 | 1020.7 |
| 20260506164556 | 53 | 0 | 0.0 | 3.0 | 0.00 | 0.00 | 0.00 | 93 | 1020.8 |
| 20260506164058 | 53 | 0 | 0.0 | 3.0 | 0.00 | 0.00 | 0.00 | 93 | 1020.8 |
| 20260506163558 | 53 | 271 | 0.0 | 4.0 | 0.00 | 0.00 | 0.00 | 93 | 1020.9 |
| 20260506163100 | 52 | 31 | 1.0 | 4.0 | 0.00 | 0.00 | 0.00 | 93 | 1020.8 |
| 20260506162559 | 52 | 326 | 0.0 | 3.0 | 0.00 | 0.00 | 0.00 | 93 | 1020.9 |
| 20260506162101 | 52 | 328 | 1.0 | 3.0 | 0.00 | 0.00 | 0.00 | 93 | 1020.9 |
| 20260506161609 | 52 | 0 | 0.0 | 3.0 | 0.00 | 0.00 | 0.00 | 93 | 1020.8 |
| 20260506161057 | 52 | 257 | 0.0 | 3.0 | 0.00 | 0.00 | 0.00 | 94 | 1020.8 |
| 20260506160558 | 52 | 0 | 0.0 | 3.0 | 0.00 | 0.00 | 0.00 | 94 | 1020.7 |
| 20260506160107 | 52 | 246 | 1.0 | 5.0 | 0.00 | 0.00 | 0.00 | 94 | 1020.7 |
| 20260506155557 | 52 | 306 | 1.0 | 6.0 | 0.00 | 0.00 | 0.00 | 94 | 1020.7 |
| 20260506155058 | 52 | 317 | 1.0 | 8.0 | 0.00 | 0.00 | 0.00 | 94 | 1020.5 |
| 20260506154601 | 52 | 302 | 4.0 | 8.0 | 0.00 | 0.00 | 0.00 | 94 | 1020.6 |
| 20260506154058 | 52 | 333 | 3.0 | 7.0 | 0.00 | 0.00 | 0.00 | 94 | 1020.6 |
| 20260506153558 | 52 | 316 | 1.0 | 7.0 | 0.00 | 0.00 | 0.00 | 95 | 1020.6 |
| 20260506153056 | 52 | 325 | 3.0 | 7.0 | 0.00 | 0.00 | 0.00 | 94 | 1020.5 |
| 20260506152558 | 52 | 296 | 3.0 | 5.0 | 0.00 | 0.00 | 0.00 | 95 | 1020.5 |
| 20260506152058 | 52 | 313 | 1.0 | 5.0 | 0.00 | 0.00 | 0.00 | 95 | 1020.4 |
| 20260506151558 | 52 | 315 | 1.0 | 4.0 | 0.00 | 0.00 | 0.00 | 95 | 1020.3 |
| 20260506151059 | 52 | 0 | 0.0 | 2.0 | 0.00 | 0.00 | 0.00 | 96 | 1020.1 |
| 20260506150601 | 52 | 0 | 0.0 | 2.0 | 0.00 | 0.00 | 0.00 | 95 | 1019.9 |
| 20260506150106 | 52 | 159 | 0.0 | 2.0 | 0.00 | 0.00 | 0.00 | 96 | 1019.9 |
| 20260506145559 | 52 | 0 | 0.0 | 2.0 | 0.00 | 0.00 | 0.00 | 96 | 1020.0 |
| 20260506145058 | 52 | 0 | 0.0 | 2.0 | 0.00 | 0.00 | 0.00 | 97 | 1020.1 |
| 20260506144611 | 51 | 0 | 0.0 | 2.0 | 0.00 | 0.00 | 0.00 | 96 | 1020.0 |
| 20260506144058 | 51 | 0 | 0.0 | 3.0 | 0.00 | 0.00 | 0.00 | 96 | 1020.1 |
| 20260506143559 | 51 | 0 | 0.0 | 4.0 | 0.00 | 0.00 | 0.00 | 96 | 1020.3 |
| 20260506143058 | 51 | 288 | 0.0 | 4.0 | 0.00 | 0.00 | 0.00 | 96 | 1020.4 |
| 20260506142557 | 52 | 0 | 1.0 | 4.0 | 0.00 | 0.00 | 0.00 | 96 | 1020.4 |
| 20260506142058 | 52 | 341 | 2.0 | 5.0 | 0.00 | 0.00 | 0.00 | 96 | 1020.4 |
| 20260506141557 | 52 | 313 | 1.0 | 5.0 | 0.00 | 0.00 | 0.00 | 96 | 1020.4 |
| 20260506141116 | 52 | 329 | 2.0 | 5.0 | 0.00 | 0.00 | 0.00 | 96 | 1020.3 |
| 20260506140557 | 52 | 342 | 1.0 | 5.0 | 0.00 | 0.00 | 0.00 | 96 | 1020.2 |
| 20260506140107 | 52 | 313 | 1.0 | 5.0 | 0.00 | 0.00 | 0.00 | 96 | 1020.1 |
| 20260506135559 | 52 | 327 | 3.0 | 6.0 | 0.00 | 0.00 | 0.00 | 95 | 1020.3 |
| 20260506135059 | 52 | 339 | 3.0 | 6.0 | 0.00 | 0.00 | 0.00 | 95 | 1020.2 |
| 20260506134557 | 52 | 327 | 3.0 | 5.0 | 0.00 | 0.00 | 0.00 | 95 | 1020.1 |
| 20260506134058 | 52 | 325 | 1.0 | 3.0 | 0.00 | 0.00 | 0.00 | 95 | 1020.0 |
| 20260506133558 | 52 | 0 | 0.0 | 3.0 | 0.00 | 0.00 | 0.00 | 95 | 1019.7 |
| 20260506133135 | 52 | 0 | 0.0 | 3.0 | 0.00 | 0.00 | 0.00 | 95 | 1019.6 |
| 20260506132557 | 52 | 309 | 0.0 | 3.0 | 0.00 | 0.00 | 0.00 | 95 | 1019.6 |
| 20260506132058 | 52 | 321 | 1.0 | 4.0 | 0.00 | 0.00 | 0.00 | 95 | 1019.6 |
| 20260506131603 | 52 | 315 | 0.0 | 4.0 | 0.00 | 0.00 | 0.00 | 96 | 1019.6 |
| 20260506131059 | 52 | 0 | 1.0 | 4.0 | 0.00 | 0.00 | 0.00 | 96 | 1019.5 |
| 20260506130558 | 52 | 0 | 0.0 | 2.0 | 0.00 | 0.00 | 0.00 | 96 | 1019.4 |
| 20260506130139 | 52 | 0 | 0.0 | 0.0 | 0.00 | 0.00 | 0.00 | 96 | 1019.4 |
| 20260506125558 | 52 | 0 | 0.0 | 0.0 | 0.00 | 0.00 | 0.00 | 96 | 1019.4 |
| 20260506125057 | 52 | 0 | 0.0 | 0.0 | 0.00 | 0.00 | 0.00 | 96 | 1019.3 |
| 20260506124559 | 52 | 0 | 0.0 | 0.0 | 0.00 | 0.00 | 0.00 | 96 | 1019.3 |
| 20260506124058 | 52 | 0 | 0.0 | 0.0 | 0.00 | 0.00 | 0.00 | 96 | 1019.2 |
| 20260506123558 | 52 | 0 | 0.0 | 0.0 | 0.00 | 0.00 | 0.00 | 96 | 1019.2 |
| 20260506123101 | 52 | 0 | 0.0 | 0.0 | 0.00 | 0.00 | 0.00 | 96 | 1019.2 |
| 20260506122558 | 52 | 0 | 0.0 | 0.0 | 0.00 | 0.00 | 0.00 | 96 | 1019.1 |
| 20260506122057 | 52 | 0 | 0.0 | 0.0 | 0.00 | 0.00 | 0.00 | 96 | 1019.1 |
| 20260506121602 | 52 | 0 | 0.0 | 0.0 | 0.00 | 0.00 | 0.00 | 96 | 1019.1 |
| 20260506121058 | 52 | 0 | 0.0 | 0.0 | 0.00 | 0.00 | 0.00 | 96 | 1019.1 |
| 20260506120600 | 52 | 0 | 0.0 | 0.0 | 0.00 | 0.00 | 0.00 | 96 | 1019.1 |
| 20260506120109 | 52 | 0 | 0.0 | 0.0 | 0.00 | 0.00 | 0.00 | 96 | 1019.1 |
| 20260506115557 | 52 | 0 | 0.0 | 0.0 | 0.00 | 0.00 | 0.00 | 96 | 1019.2 |
| 20260506115058 | 52 | 0 | 0.0 | 0.0 | 0.00 | 0.00 | 0.00 | 96 | 1019.1 |
| 20260506114606 | 52 | 0 | 0.0 | 0.0 | 0.00 | 0.00 | 0.00 | 96 | 1019.2 |
| 20260506114058 | 52 | 0 | 0.0 | 0.0 | 0.00 | 0.00 | 0.00 | 96 | 1019.1 |
| 20260506113557 | 52 | 0 | 0.0 | 0.0 | 0.00 | 0.00 | 0.00 | 96 | 1019.0 |
| 20260506113057 | 52 | 0 | 0.0 | 0.0 | 0.00 | 0.00 | 0.00 | 96 | 1019.0 |
| 20260506112559 | 52 | 0 | 0.0 | 0.0 | 0.00 | 0.00 | 0.00 | 96 | 1019.1 |
| 20260506112057 | 52 | 0 | 0.0 | 0.0 | 0.00 | 0.00 | 0.00 | 96 | 1019.2 |
| 20260506111558 | 52 | 0 | 0.0 | 0.0 | 0.00 | 0.00 | 0.00 | 96 | 1019.1 |
| 20260506111059 | 52 | 0 | 0.0 | 0.0 | 0.00 | 0.00 | 0.00 | 96 | 1019.1 |
| 20260506110558 | 52 | 0 | 0.0 | 0.0 | 0.00 | 0.00 | 0.00 | 96 | 1019.1 |
| 20260506110058 | 52 | 0 | 0.0 | 0.0 | 0.00 | 0.00 | 0.00 | 96 | 1019.1 |
| 20260506105646 | 52 | 0 | 0.0 | 0.0 | 0.00 | 0.00 | 0.00 | 96 | 1018.9 |
| 20260506105059 | 52 | 0 | 0.0 | 0.0 | 0.00 | 0.00 | 0.00 | 96 | 1018.9 |
| 20260506104605 | 52 | 0 | 0.0 | 0.0 | 0.00 | 0.00 | 0.00 | 96 | 1018.9 |
| 20260506104058 | 52 | 0 | 0.0 | 0.0 | 0.00 | 0.00 | 0.00 | 96 | 1018.8 |
| 20260506103559 | 52 | 0 | 0.0 | 0.0 | 0.00 | 0.00 | 0.00 | 96 | 1018.7 |
| 20260506103106 | 52 | 0 | 0.0 | 0.0 | 0.00 | 0.00 | 0.00 | 96 | 1018.7 |
| 20260506102559 | 52 | 0 | 0.0 | 0.0 | 0.00 | 0.00 | 0.00 | 96 | 1018.6 |
| 20260506102101 | 52 | 0 | 0.0 | 0.0 | 0.00 | 0.00 | 0.00 | 96 | 1018.6 |
| 20260506101555 | 52 | 0 | 0.0 | 0.0 | 0.00 | 0.00 | 0.00 | 95 | 1018.6 |
| 20260506101059 | 52 | 0 | 0.0 | 0.0 | 0.00 | 0.00 | 0.00 | 95 | 1018.6 |
| 20260506100558 | 52 | 0 | 0.0 | 0.0 | 0.00 | 0.00 | 0.00 | 95 | 1018.6 |
| 20260506100108 | 52 | 0 | 0.0 | 2.0 | 0.00 | 0.00 | 0.00 | 94 | 1018.6 |
| 20260506095558 | 53 | 0 | 0.0 | 2.0 | 0.00 | 0.00 | 0.00 | 94 | 1018.6 |
| 20260506095058 | 53 | 315 | 0.0 | 2.0 | 0.00 | 0.00 | 0.00 | 94 | 1018.6 |
| 20260506094603 | 53 | 0 | 0.0 | 3.0 | 0.00 | 0.00 | 0.00 | 93 | 1018.6 |
| 20260506094057 | 53 | 264 | 1.0 | 3.0 | 0.00 | 0.00 | 0.00 | 93 | 1018.5 |
| 20260506093558 | 53 | 273 | 1.0 | 3.0 | 0.00 | 0.00 | 0.00 | 92 | 1018.4 |
| 20260506093056 | 53 | 0 | 1.0 | 3.0 | 0.00 | 0.00 | 0.00 | 91 | 1018.3 |
| 20260506092558 | 53 | 309 | 0.0 | 3.0 | 0.00 | 0.00 | 0.00 | 91 | 1018.3 |
| 20260506092058 | 53 | 281 | 1.0 | 3.0 | 0.00 | 0.00 | 0.00 | 91 | 1018.2 |
| 20260506091559 | 54 | 0 | 0.0 | 3.0 | 0.00 | 0.00 | 0.00 | 90 | 1018.2 |
| 20260506091059 | 54 | 0 | 0.0 | 3.0 | 0.00 | 0.00 | 0.00 | 90 | 1018.2 |
| 20260506090558 | 54 | 316 | 1.0 | 3.0 | 0.00 | 0.00 | 0.00 | 90 | 1018.2 |
| 20260506090058 | 54 | 333 | 0.0 | 3.0 | 0.00 | 0.00 | 0.00 | 90 | 1018.3 |
| 20260506085558 | 54 | 299 | 0.0 | 3.0 | 0.00 | 0.00 | 0.00 | 89 | 1018.2 |
| 20260506085101 | 54 | 326 | 0.0 | 3.0 | 0.00 | 0.00 | 0.00 | 90 | 1018.2 |
| 20260506084601 | 54 | 0 | 0.0 | 3.0 | 0.00 | 0.00 | 0.00 | 89 | 1018.1 |
| 20260506084058 | 54 | 330 | 0.0 | 2.0 | 0.00 | 0.00 | 0.00 | 89 | 1018.0 |
| 20260506083558 | 54 | 0 | 0.0 | 2.0 | 0.00 | 0.00 | 0.00 | 89 | 1018.0 |
| 20260506083059 | 54 | 0 | 0.0 | 2.0 | 0.00 | 0.00 | 0.00 | 89 | 1018.0 |
| 20260506082558 | 54 | 0 | 0.0 | 0.0 | 0.00 | 0.00 | 0.00 | 89 | 1017.9 |
| 20260506082059 | 54 | 0 | 0.0 | 0.0 | 0.00 | 0.00 | 0.00 | 89 | 1018.0 |
| 20260506081614 | 54 | 0 | 0.0 | 0.0 | 0.00 | 0.00 | 0.00 | 89 | 1017.9 |
| 20260506081059 | 54 | 0 | 0.0 | 3.0 | 0.00 | 0.00 | 0.00 | 89 | 1017.9 |
| 20260506080559 | 54 | 0 | 0.0 | 3.0 | 0.00 | 0.00 | 0.00 | 89 | 1017.8 |
| 20260506080105 | 54 | 282 | 0.0 | 1.0 | 0.00 | 0.00 | 0.00 | 89 | 1017.8 |
| 20260506073056 | 55 | 0 | 0.0 | 2.0 | 0.00 | 0.00 | 0.00 | 89 | 1017.7 |
| 20260506072555 | 55 | 0 | 0.0 | 3.0 | 0.00 | 0.00 | 0.00 | 89 | 1017.7 |
| 20260506072057 | 55 | 290 | 0.0 | 3.0 | 0.00 | 0.00 | 0.00 | 88 | 1017.6 |
| 20260506071557 | 55 | 325 | 1.0 | 4.0 | 0.00 | 0.00 | 0.00 | 88 | 1017.6 |
| 20260506071059 | 55 | 338 | 1.0 | 5.0 | 0.00 | 0.00 | 0.00 | 88 | 1017.6 |
| 20260506070556 | 55 | 314 | 2.0 | 5.0 | 0.00 | 0.00 | 0.00 | 88 | 1017.5 |